Peoria, IL

8:11 AM CDT on August 18, 2017 (GMT -0500)
Greater Peoria Regional

Weather History for KPIA - March, 2013

Change the Weather History Date:

Wednesday, March 27, 2013

  Actual Average Record
Temperature  
Mean Temperature 36 °F 45 °F  
Max Temperature 43 °F 55 °F 81 °F (1945)
Min Temperature 29 °F 35 °F 12 °F (1965)
Degree Days  
Heating Degree Days 29 20  
Month to date heating degree days 871 680  
Since 1 July heating degree days 5164 5196  
Cooling Degree Days 0 0  
Month to date cooling degree days 0 0  
Year to date cooling degree days 0 0  
Moisture  
Dew Point 22 °F    
Average Humidity 61    
Maximum Humidity 78    
Minimum Humidity 43    
Precipitation  
Precipitation 0.00 in 0.10 in 1.25 in (1890)
Month to date precipitation 2.63 2.38  
Year to date precipitation 9.36 5.95  
Snow  
Snow 0.00 in 0.00 in 0.80 in (1975)
Month to date snowfall 10.8 2.5  
Since 1 July snowfall 22.7 23.8  
Snow Depth 3.00 in    
Sea Level Pressure  
Sea Level Pressure 30.35 in    
Wind  
Wind Speed 5 mph (West)    
Max Wind Speed 13 mph    
Max Gust Speed 16 mph    
Visibility 10 miles    
Events      
T = Trace of Precipitation, MM = Missing Value Source: NWS Daily Summary

Daily Weather History Graph

Daily Weather History Graph

Search for Another Location

Airport or City:

Trip Planner

Search our weather history database for the weather conditions in past years. The results will help you decide how hot, cold, wet, or windy it might be!

Date:

Astronomy

Mar. 27, 2013 Rise Set
Actual Time 6:50 AM CDT 7:18 PM CDT
Civil Twilight 6:22 AM CDT 7:45 PM CDT
Nautical Twilight 5:50 AM CDT 8:18 PM CDT
Astronomical Twilight 5:17 AM CDT 8:51 PM CDT
Moon 8:02 PM CDT (3/27) 6:40 AM CDT (3/27)
Length of Visible Light 13h 23m
Length of Day
12h 28m
Full, 100% of the Moon is Illuminated
Mar 27
Full
Apr 2
Last Quarter
Apr 10
New
Apr 18
First Quarter
Apr 25
Full

Hourly Weather History & Observations

Time (CDT) Temp. Windchill Dew Point Humidity Pressure Visibility Wind Dir Wind Speed Gust Speed Precip Events Conditions
12:54 AM 35.1 °F 31.0 °F 21.9 °F 59% 30.33 in 10.0 mi West 4.6 mph - N/A   Overcast
1:54 AM 34.0 °F 28.0 °F 21.0 °F 59% 30.35 in 10.0 mi West 6.9 mph - N/A   Overcast
2:54 AM 33.1 °F 28.7 °F 23.0 °F 66% 30.34 in 10.0 mi WNW 4.6 mph - N/A   Overcast
3:54 AM 33.1 °F 27.7 °F 23.0 °F 66% 30.33 in 10.0 mi WNW 5.8 mph - N/A   Mostly Cloudy
4:54 AM 30.9 °F 25.2 °F 24.1 °F 76% 30.33 in 10.0 mi West 5.8 mph - N/A   Mostly Cloudy
5:54 AM 30.0 °F 25.2 °F 24.1 °F 79% 30.35 in 10.0 mi WNW 4.6 mph - N/A   Clear
6:54 AM 30.0 °F 24.1 °F 23.0 °F 75% 30.36 in 10.0 mi WNW 5.8 mph - N/A   Clear
7:54 AM 30.9 °F 27.5 °F 24.1 °F 76% 30.37 in 10.0 mi WNW 3.5 mph - N/A   Clear
8:54 AM 33.1 °F 27.7 °F 24.1 °F 70% 30.37 in 10.0 mi NW 5.8 mph - N/A   Clear
9:54 AM 36.0 °F 31.1 °F 23.0 °F 59% 30.38 in 10.0 mi WNW 5.8 mph - N/A   Clear
10:54 AM 39.0 °F 34.8 °F 21.0 °F 49% 30.39 in 10.0 mi Variable 5.8 mph - N/A   Clear
11:54 AM 39.9 °F 32.9 °F 21.0 °F 47% 30.39 in 10.0 mi West 11.5 mph - N/A   Clear
12:54 PM 39.9 °F 35.1 °F 19.0 °F 43% 30.38 in 10.0 mi NW 6.9 mph - N/A   Clear
1:54 PM 41.0 °F 35.8 °F 21.0 °F 45% 30.37 in 10.0 mi West 8.1 mph - N/A   Partly Cloudy
2:54 PM 42.1 °F 37.1 °F 21.9 °F 45% 30.35 in 10.0 mi West 8.1 mph 16.1 mph N/A   Partly Cloudy
3:54 PM 42.1 °F 39.2 °F 21.9 °F 45% 30.34 in 10.0 mi West 4.6 mph - N/A   Clear
4:54 PM 42.1 °F - 23.0 °F 47% 30.33 in 10.0 mi North - - N/A   Clear
5:54 PM 42.1 °F 39.2 °F 21.9 °F 45% 30.33 in 10.0 mi Variable 4.6 mph - N/A   Clear
6:54 PM 39.9 °F 35.8 °F 21.9 °F 49% 30.33 in 10.0 mi West 5.8 mph - N/A   Clear
7:54 PM 39.0 °F 36.8 °F 21.9 °F 50% 30.33 in 10.0 mi West 3.5 mph - N/A   Clear
8:54 PM 33.1 °F 26.9 °F 24.1 °F 70% 30.35 in 10.0 mi SSW 6.9 mph - N/A   Clear
9:54 PM 33.1 °F 27.7 °F 23.0 °F 66% 30.36 in 10.0 mi SW 5.8 mph - N/A   Clear
10:54 PM 33.1 °F 30.0 °F 23.0 °F 66% 30.36 in 10.0 mi SW 3.5 mph - N/A   Clear
11:54 PM 30.9 °F - 23.0 °F 72% 30.36 in 10.0 mi Calm Calm - N/A   Clear